Change the Weather History Date:

Friday, November 8, 2013

  Actual Average Record
Temperature  
Mean Temperature 70 °F 67 °F  
Max Temperature 85 °F 79 °F 91 °F (1906)
Min Temperature 55 °F 56 °F 32 °F (1897)
Degree Days  
Heating Degree Days 0 1  
Month to date heating degree days 0 8  
Since 1 July heating degree days 1 14  
Cooling Degree Days 5 4  
Month to date cooling degree days 35 39  
Year to date cooling degree days 4947 4575  
Growing Degree Days 20 (Base 50)    
Moisture  
Dew Point 29 °F    
Average Humidity 23    
Maximum Humidity 32    
Minimum Humidity 13    
Precipitation  
Precipitation 0.00 in 0.02 in 0.36 in (1966)
Month to date precipitation T 0.16  
Year to date precipitation 5.60 6.66  
Snow  
Snow 0.00 in - - ()
Month to date snowfall 0.0  
Year to date snowfall 0.0  
Since 1 July snowfall 0.0  
Snow Depth 0.00 in    
Sea Level Pressure  
Sea Level Pressure 29.96 in    
Wind  
Wind Speed 4 mph (SE)    
Max Wind Speed 13 mph    
Max Gust Speed 14 mph    
Visibility 10 miles    
Events      
T = Trace of Precipitation, MM = Missing Value Source: NWS Daily Summary

Daily Weather History Graph

Daily Weather History Graph

Search for Another Location

Airport or City:

Trip Planner

Search our weather history database for the weather conditions in past years. The results will help you decide how hot, cold, wet, or windy it might be!

Date:

Astronomy

Nov. 08, 2013 Rise Set
Actual Time 6:53 AM MST 5:29 PM MST
Civil Twilight 6:27 AM MST 5:55 PM MST
Nautical Twilight 5:57 AM MST 6:25 PM MST
Astronomical Twilight 5:28 AM MST 6:54 PM MST
Moon 11:51 AM MST (11/8) 10:54 PM MST (11/8)
Length of Visible Light 11h 28m
Length of Day
10h 36m
Waxing Crescent, 34% of the Moon is Illuminated
Nov 8
Waxing Crescent
Nov 9
First Quarter
Nov 17
Full
Nov 25
Last Quarter
Dec 2
New

Hourly Weather History & Observations

Time (MST) Temp. Dew Point Humidity Pressure Visibility Wind Dir Wind Speed Gust Speed Precip Events Conditions
12:51 AM 62.1 °F 21.9 °F 21% 29.99 in 10.0 mi East 3.5 mph - N/A   Clear
1:51 AM 62.1 °F 23.0 °F 22% 29.99 in 10.0 mi East 3.5 mph - N/A   Clear
2:51 AM 59.0 °F 27.0 °F 29% 29.99 in 10.0 mi ESE 3.5 mph - N/A   Clear
3:51 AM 59.0 °F 24.1 °F 26% 29.99 in 10.0 mi ESE 3.5 mph - N/A   Clear
4:51 AM 57.9 °F 23.0 °F 26% 29.99 in 10.0 mi ESE 3.5 mph - N/A   Scattered Clouds
5:51 AM 57.9 °F 24.1 °F 27% 30.01 in 10.0 mi Calm Calm - N/A   Scattered Clouds
6:51 AM 57.0 °F 24.1 °F 28% 30.01 in 10.0 mi East 4.6 mph - N/A   Scattered Clouds
7:51 AM 62.1 °F 25.0 °F 24% 30.02 in 10.0 mi Calm Calm - N/A   Scattered Clouds
8:51 AM 66.0 °F 25.0 °F 21% 30.03 in 10.0 mi East 11.5 mph - N/A   Scattered Clouds
9:51 AM 73.0 °F 26.1 °F 17% 30.03 in 10.0 mi ESE 9.2 mph - N/A   Partly Cloudy
10:51 AM 77.0 °F 28.0 °F 17% 30.01 in 10.0 mi Variable 5.8 mph - N/A   Partly Cloudy
11:51 AM 80.1 °F 28.0 °F 15% 29.99 in 10.0 mi ESE 3.5 mph - N/A   Partly Cloudy
12:51 PM 82.0 °F 28.0 °F 14% 29.96 in 10.0 mi Variable 5.8 mph - N/A   Scattered Clouds
1:51 PM 82.9 °F 28.9 °F 14% 29.92 in 10.0 mi Calm Calm - N/A   Scattered Clouds
2:51 PM 84.9 °F 28.9 °F 13% 29.91 in 10.0 mi SSW 4.6 mph - N/A   Mostly Cloudy
3:51 PM 84.9 °F 30.0 °F 14% 29.89 in 10.0 mi SSW 4.6 mph - N/A   Mostly Cloudy
4:51 PM 82.9 °F 32.0 °F 16% 29.88 in 10.0 mi West 5.8 mph - N/A   Mostly Cloudy
5:51 PM 81.0 °F 32.0 °F 17% 29.89 in 10.0 mi NW 6.9 mph - N/A   Scattered Clouds
6:51 PM 80.1 °F 33.1 °F 18% 29.90 in 10.0 mi NNW 4.6 mph - N/A   Partly Cloudy
7:51 PM 73.0 °F 34.0 °F 24% 29.92 in 10.0 mi Calm Calm - N/A   Clear
8:51 PM 70.0 °F 35.1 °F 28% 29.92 in 10.0 mi SSW 3.5 mph - N/A   Clear
9:51 PM 70.0 °F 34.0 °F 27% 29.93 in 10.0 mi West 3.5 mph - N/A   Clear
10:51 PM 66.9 °F 35.1 °F 31% 29.95 in 10.0 mi Calm Calm - N/A   Clear
11:51 PM 64.9 °F 39.0 °F 39% 29.95 in 10.0 mi ESE 4.6 mph - N/A   Clear